Flag for U.S.A. Weather past 2 weeks in Eau Claire, Wisconsin, U.S.A.

Now
74 °F

Passing clouds.


Feels Like: 71 °F
Forecast: 70 / 84 °F
Wind: 5 mph from Southeast

Location: Eau Claire County Airport

Current Time: Aug 22, 2014 at 1:11:33 AM

Latest Report: Aug 21, 2014 at 11:56 PM


Visibility: 10 mi

Pressure: 29.85 "Hg

Humidity: 94%

Dew point: 72 °F

Location of Eau ClaireLocation

Historic Weather in Eau Claire — Graph

°F

Eau Claire temperature yesterday

Maximum temperature yesterday: 79 °F (at 4:56 PM)
Minimum temperature yesterday: 66 °F (at 2:56 AM)
Average temperature yesterday: 72 °F

Past Weeks' High & Low Weather Summary

 TemperatureHumidityPressure
High84 °F (Aug 16, 4:56 PM)100% (Aug 7, 1:56 AM)30.18 "Hg (Aug 7, 1:56 AM)
Low47 °F (Aug 14, 5:56 AM)28% (Aug 10, 2:56 PM)29.62 "Hg (Aug 19, 2:56 AM)
Average69 °F77%29.95 "Hg
* Reported Aug 6 11:56 PM — Aug 21 11:56 PM, Eau Claire, Weather by CustomWeather, © 2014

Note: Actual official high and low records may vary slightly from our data, if they occured in-between our weather recording intervals... More about our weather records

Advertising

Eau Claire weather history for previous 24 hours

 ConditionsComfort  
Time TempWeatherWind HumidityBarometerVisibility
11:56 PM
Aug 21
74 °FPassing clouds.5 mph94%29.85 "Hg10 mi
10:56 PM75 °FMostly cloudy.6 mph90%29.85 "Hg10 mi
9:56 PM76 °FPassing clouds.6 mph88%29.84 "Hg10 mi
8:56 PM76 °FMostly cloudy.7 mph88%29.83 "Hg10 mi
7:56 PM77 °FMore clouds than sun.10 mph85%29.82 "Hg10 mi
6:56 PM78 °FMostly cloudy.12 mph82%29.82 "Hg10 mi
5:56 PM78 °FOvercast.9 mph79%29.82 "Hg10 mi
4:56 PM79 °FScattered clouds.14 mph74%29.82 "Hg10 mi
3:56 PM76 °FOvercast.12 mph82%29.82 "Hg10 mi
2:56 PM77 °FOvercast.14 mph77%29.82 "Hg10 mi
1:56 PM77 °FBroken clouds.13 mph77%29.81 "Hg10 mi
12:56 PM76 °FMostly cloudy.10 mph80%29.82 "Hg10 mi
11:56 AM74 °FPartly sunny.9 mph85%29.83 "Hg10 mi
10:56 AM70 °FMostly cloudy.13 mph93%29.85 "Hg10 mi
9:56 AM68 °FLight rain. Low clouds.8 mph100%29.84 "Hg10 mi
8:56 AM67 °FRain. Fog.8 mph100%29.85 "Hg3 mi
7:56 AM66 °FLight rain. Overcast.6 mph96%29.88 "Hg10 mi
6:56 AM66 °FLight rain. Passing clouds.6 mph96%29.87 "Hg10 mi
5:56 AM66 °FRain. Passing clouds.7 mph93%29.83 "Hg10 mi
4:56 AM66 °FPassing clouds.5 mph93%29.83 "Hg10 mi
3:56 AM66 °FClear.8 mph93%29.85 "Hg10 mi
2:56 AM66 °FPassing clouds.7 mph90%29.87 "Hg10 mi
1:56 AM67 °FPassing clouds.7 mph87%29.88 "Hg10 mi
Weather by CustomWeather, © 2014

See weather overviewHow to use our weather pages